Weather in Nifantovo

Russia / Vologda Oblast     59°12′49″N   38°27′55″E
temp.,
°C
wind,
m/s
gust,
m/s
humid.,
%
clouds,
%
prec.,
mm/h
press.,
hPa
HPBL,
m
16 may, mon
mon1600:00+6nw31094100 0.0 1001275
03:00+6wnw4996100 0.0 1001356
06:00+7wnw4896100 0.0 1001400
09:00+7nw4897100 1.1 1001510
12:00+9nw4793100 3.4 1001657
15:00+11nw488699 3.5 1001787
18:00+9nnw6129098 1.1 1001549
21:00+8nnw61293100 1.3 1002358
17 may, tue
tue1700:00+7nnw499687 0.1 1002224
03:00+5nnw3898100 0.1 1003188
06:00+6n499699 0.0 1003247
09:00+10nne687352 0.0 1004679
12:00+13nne685581 0.0 10051755
15:00+13nne685056 0.0 10052039
18:00+12nne585936 0.0 10071319
21:00+6nne387363 0.0 1009160
18 may, wed
wed1800:00+4nne378577 0.0 1010150
03:00+2n369073 0.0 1011130
06:00+4n378084 0.0 1012262
09:00+7n566598 0.0 1012980
12:00+5nnw4691100 0.3 1013581
15:00+7nw5673100 0.6 10121188
18:00+7nw4779100 0.6 1012978
21:00+3wnw358986 0.8 1012103
19 may, thu
thu1900:00+3wnw2593100 0.0 1011245
03:00+2nnw379684 0.1 1011420
06:00+3n478597 0.0 1012603
09:00+6n577277 0.1 10131155
12:00+9nnw5746100 0.1 10132397
15:00+9nnw684999 0.2 10142038
18:00+8n696362 0.4 10151309
21:00+4nnw49735 0.4 1016256
20 may, fri
fri2000:000nw38895 0.0 1017185
03:00−1nw389483 0.0 1018191
06:00+1nnw488170 0.0 1018401
09:00+6nnw585475 0.0 10171572
12:00+8nnw6845100 0.0 10162247
15:00+9nnw574499 0.0 10152165
18:00+8n575525 0.0 10151481
21:00+3nnw37695 0.1 1015120